SL-16 DEB *, 42255

Orbit data source: Space-Track

SL-16 DEB *, 42255 is space debris in LEO originally from a launch on Fri, 26 Mar 1993 UTC launched from the Tyuratam Missile And Space Complex (TTMTR). Debris objects in space refer to the collection of defunct objects orbiting the Earth. Examples of debris include non-operational satellites, rocket bodies, and fragments generated from explosions, collisions, or faulty payload assembly.

Loading next visibility...
Identifier
42255, 1993-016DK
Orbit
LEO
Country
Flag of CISCIS
Related business
Manufacturer
Unknown
Mission
Spacecraft
Bus & Motor
Unknown
Mass
Unknown
Launch date (UTC)
1993-03-26 (33 years ago)
Launch vehicle
Unknown
Launch site
Tyuratam Missile And Space Complex (TTMTR)
Object type
Payload
Rocket body
Debris
Shape & HBR
Unknown shape, 0.1 m
Radar Cross Section
Small (<0.1 m²)

Expand to show TLE details & history
Last TLE update: 16 hours ago

TLE from 16 hours ago
0 SL-16 DEB *
1 42255U 93016DK  26034.95214174  .00000885  00000-0  41502-3 0  9991
2 42255  71.0047 218.9162 0010617 312.3670 199.1364 14.22888064632080
Epoch: 2026-02-03T22:51Z
TLE epoch observation values (Epoch: 2026-02-03T22:51:05.046Z)
Latitude
26.90036°
Longitude
-87.98465°
Altitude
825.592 km
Speed
7.439 km/s
True Right ascension
01h 55m 38s
True Declination
26° 45' 47"
Sunlit
Object was in daylight at epoch
Visualization orbit readout
Latitude
Unknown
Longitude
Unknown
Altitude
Unknown
Speed
Unknown
Apparent Right ascension
Unknown
Apparent Declination
Unknown
Sunlit
N/A
Visualization observer readout
Local Sidereal Time
17:12:37
Azimuth
Unknown
Elevation
Unknown
Doppler factor
Unknown
Orbital elements
Apogee altitude
821.154 km
Perigee altitude
805.883 km
Semi-major axis
7,191.656 km
Eccentricity
0.00106
Inclination
71.0047°
RAAN
218.9162°
Arg. of periapsis
312.367°
True anomaly
199.09657°
Mean anomaly
199.1364°
Eccentric anomaly
199.11648°
Mean motion
3.55877 °/min
Orbital period
101.16 mins
BSTAR
0.00041502
Loading maneuver chart data...
Computing Atmospheric mass density...
Loading historical data...
Loading historical data...
Loading historical data...
Loading historical data...
Loading historical data...
Loading historical data...
Loading historical data...

Documentation

Showing up to 5 results
|